Location: Hickory_CSC
(35.7330°N, 81.3330°W)
Time: 07:58:47
(UTC-05:00)

ISS - All Passes

Search period start: 17 January 2017 00:00
Search period end: 27 January 2017 00:00
Orbit: 400 x 410 km, 51.6° (Epoch: 17 January)

Date Brightness Start Highest point End Pass type
(mag) Time Alt. Az. Time Alt. Az. Time Alt. Az.
17 Jan - 01:12:23 10° WNW 01:14:04 13° NNW 01:15:45 10° N night (unlit)
17 Jan - 06:04:24 10° NNW 06:07:14 27° NE 06:10:04 10° E visible
17 Jan - 07:40:56 10° WNW 07:43:38 25° SW 07:46:21 10° S daylight
17 Jan - 22:42:05 10° SSW 22:45:06 36° SE 22:48:07 10° ENE night (unlit)
18 Jan - 00:19:06 10° W 00:21:39 21° NNW 00:24:12 10° NNE night (unlit)
18 Jan - 05:12:40 10° NNW 05:14:51 17° NNE 05:17:03 10° ENE visible
18 Jan - 06:48:22 10° WNW 06:51:34 54° SW 06:54:44 10° SSE visible
18 Jan - 21:50:46 10° S 21:53:03 18° SE 21:55:18 10° E night (unlit)
18 Jan - 23:26:16 10° WSW 23:29:18 36° NW 23:32:21 10° NNE night (unlit)
19 Jan - 04:21:23 10° N 04:22:23 11° NNE 04:23:24 10° NE visible
19 Jan - 05:56:08 10° NW 05:59:23 67° NE 06:02:36 10° SE visible
19 Jan - 22:33:48 10° SW 22:37:03 74° NW 22:40:18 10° NE night (unlit)
20 Jan - 00:12:47 10° NW 00:14:01 12° NNW 00:15:13 10° N night (unlit)
20 Jan - 05:04:07 10° NNW 05:07:06 33° NE 05:10:05 10° ESE visible
20 Jan - 06:41:00 10° W 06:43:24 19° SW 06:45:47 10° S visible
20 Jan - 21:41:42 10° SSW 21:44:51 49° SE 21:48:01 10° ENE night (unlit)
20 Jan - 23:19:13 10° WNW 23:21:31 18° NNW 23:23:48 10° NNE night (unlit)
21 Jan - 04:12:16 10° NNW 04:14:43 19° NNE 04:17:11 10° E visible
21 Jan - 05:48:14 10° WNW 05:51:19 40° SW 05:54:22 10° SSE visible
21 Jan - 20:50:06 10° S 20:52:44 23° SE 20:55:22 10° ENE night (unlit)
21 Jan - 22:26:12 10° W 22:29:06 29° NW 22:31:59 10° NNE night (unlit)
22 Jan - 03:20:42 10° N 03:22:14 13° NNE 03:23:47 10° NE night (unlit)
22 Jan - 04:55:52 10° NW 04:59:07 89° NNE 05:02:22 10° SE visible
22 Jan - 19:59:42 10° SE 20:00:41 11° SE 20:01:40 10° ESE night (unlit)
22 Jan - 21:33:33 10° WSW 21:36:46 56° NW 21:39:59 10° NE night (unlit)
22 Jan - 23:13:28 10° NNW 23:13:49 10° NNW 23:14:11 10° NNW night (unlit)
23 Jan - 04:03:44 10° NW 04:06:51 41° NE 04:09:56 10° ESE night (unlit)
23 Jan - 05:41:07 10° W 05:43:02 15° SW 05:44:57 10° SSW visible
23 Jan - 20:41:17 10° SW 20:44:30 66° SE 20:47:45 10° NE night (unlit)
23 Jan - 22:19:17 10° WNW 22:21:16 15° NNW 22:23:16 10° N night (unlit)
24 Jan - 03:11:47 10° NNW 03:14:27 23° NNE 03:17:08 10° E night (unlit)
24 Jan - 04:48:02 10° WNW 04:50:56 30° SW 04:53:49 10° SSE night (unlit)
24 Jan - 19:49:26 10° SSW 19:52:20 29° SE 19:55:13 10° ENE visible
24 Jan - 21:26:04 10° W 21:28:47 24° NNW 21:31:31 10° NNE night (unlit)
25 Jan - 02:20:02 10° N 02:21:58 15° NNE 02:23:53 10° ENE night (unlit)
25 Jan - 03:55:31 10° NW 03:58:44 69° SW 04:01:57 10° SE night (unlit)
25 Jan - 18:58:21 10° SSE 19:00:12 14° SE 19:02:04 10° E visible
25 Jan - 20:33:15 10° WSW 20:36:23 43° NW 20:39:31 10° NE visible
26 Jan - 03:03:15 10° NW 03:06:27 54° NE 03:09:38 10° ESE night (unlit)
26 Jan - 04:41:26 10° WSW 04:42:33 11° SW 04:43:40 10° SSW night (unlit)
26 Jan - 19:40:47 10° SW 19:44:03 87° SE 19:47:20 10° NE visible
26 Jan - 21:19:17 10° NW 21:20:56 13° NNW 21:22:34 10° N night (unlit)
